STARLINK-5727, 55587

Orbit data source: Space-Track

STARLINK-5727, 55587 is a payload satellite owned by SpaceX/Seattle (US) in LEO that was launched on Sun, 12 Feb 2023 UTC via an FALCON 9 launch vehicle from the Air Force Eastern Test Range (AFETR). Payload-class satellites include a variety of spacecraft equipped with specific instruments for various scientific and technological missions. These include communications satellites like Starlink; space stations such as the ISS; scientific satellites like the Hubble; Earth observation satellites from companies like Planet Labs, Umbra, and HawkEye 360; GPS; miniature CubeSats for education and research; and military/defense satellites.

Loading next visibility...
Identifier
55587, 2023-020U
Orbit
LEO
Country
Flag of USUS
Related business
Manufacturer
SpaceX/Seattle
Mission
Operational spacecraft
Bus & Motor
STARLINK, Unknown motor
Mass
305 kg wet, ~290 kg dry
Launch date (UTC)
2023-02-12 (3 years ago)
Launch vehicle
FALCON 9
Launch site
Air Force Eastern Test Range (AFETR)
Object type
Payload
Rocket body
Debris
Shape & HBR
Unknown shape, 10.1 m
Radar Cross Section
Large (>1 m²)

Expand to show TLE details & history
Last TLE update: 13 hours ago

TLE from 13 hours ago
0 STARLINK-5727
1 55587U 23020U   25340.58015562 -.00000274  00000-0 -51922-5 0  9992
2 55587  43.0020 150.4699 0001202 269.4620  90.6085 15.02530335154914
Epoch: 2025-12-06T13:55Z
TLE epoch observation values (Epoch: 2025-12-06T13:55:25.445Z)
Latitude
0.00001°
Longitude
-133.99197°
Altitude
558.884 km
Speed
7.584 km/s
True Right ascension
10h 01m 52s
True Declination
0° 00' 00"
Sunlit
Object was in daylight at epoch
Visualization orbit readout
Latitude
Unknown
Longitude
Unknown
Altitude
Unknown
Speed
Unknown
Apparent Right ascension
Unknown
Apparent Declination
Unknown
Sunlit
N/A
Visualization observer readout
Local Sidereal Time
01:14:34
Azimuth
Unknown
Elevation
Unknown
Doppler factor
Unknown
Orbital elements
Apogee altitude
561.855 km
Perigee altitude
560.186 km
Semi-major axis
6,939.158 km
Eccentricity
0.00012
Inclination
43.002°
RAAN
150.4699°
Arg. of periapsis
269.462°
True anomaly
90.62227°
Mean anomaly
90.6085°
Eccentric anomaly
90.61539°
Mean motion
3.75477 °/min
Orbital period
95.88 mins
BSTAR
-0.0000051922
Loading maneuver chart data...
Computing Atmospheric mass density...
Loading historical data...
Loading historical data...
Loading historical data...
Loading historical data...
Loading historical data...
Loading historical data...
Loading historical data...

Documentation

Showing up to 5 results
|